PROFILE

 METAR AND TAF INFORMATION
ADDS - METARS form results

(0148 UTC 20 February 2020)
http://aviationweather.gov/metar/data/
 
LFBD 200130Z AUTO 12003KT 0750 0450 R23/2100U R05/0550U R29/0900U FG FEW003 04/04 Q1025
LFBD 200100Z AUTO 12002KT 0600 0450 R23/0800D R05/0650U R29/0650D FG NSC 04/04 Q1026 TEMPO 3000 BR
TAF AMD LFBD 200134Z 2001/2106 18005KT 5000 NSC TX16/2014Z TN04/2005Z TEMPO 2001/2010 0800 FG PROB40 2003/2009 0400 FG VV/// BECMG 2009/2011 CAVOK BECMG 2013/2015 27010KT TEMPO 2019/2022 3000 RADZ OVC008 BECMG 2020/2022 33005KT 

 AIRPORT MAP

 RUNWAY INFORMATION
Runway 05 Runway length 10171 ft Runway width 148 ft
Runway elevation 160 ft Runway displaced threshold 0 ft Runway heading 46
Runway 23 Runway length 10171 ft Runway width 148 ft
Runway elevation 151 ft Runway displaced threshold 0 ft Runway heading 226
Runway 11 Runway length 7923 ft Runway width 148 ft
Runway elevation 153 ft Runway displaced threshold 0 ft Runway heading 107
Runway 29 Runway length 7923 ft Runway width 148 ft
Runway elevation 160 ft Runway displaced threshold 0 ft Runway heading 287

 AIRPORT FREQUENCIES
Type APP Name AQUITAINE Frequency 118.6 MHZ
Type ARR Name APP Frequency 121.2 MHZ
Type ATIS Name ATIS Frequency 131.15 MHZ
Type GND Name GND Frequency 121.9 MHZ
Type INFO Name AQUITAINE Frequency 120.575 MHZ
Type OPS Name OPNS Frequency 143.175 MHZ
Type TWR Name TWR Frequency 118.3 MHZ

 AIRPORT NEAR NAVIGATION AIDS
Type NDB Name Bordeaux Frequency 393 KHZ
Type TACAN Name Bordeaux Frequency 114400 KHZ
Type NDB Name Bordeaux Frequency 318 KHZ
Type VOR-DME Name Bordeaux Frequency 113750 KHZ
Type NDB Name Bordeaux Frequency 361 KHZ